Weather home | Your neighborhood | Marine | Radar | Hurricane | Almanac

Daily weather history


Statistical History for Sunday, February 24, 2013

St. Petersburg Airport, FL


  Actual Average Record
Temperature
Mean Temperature -  
Max Temperature 71 °F 84 °F (1961)
Min Temperature 56 °F 41 °F (1989)
Cooling Degree Days    
Growing Degree Days 22 (Base - )  
Moisture
Dew Point   
Average Humidity    
Maximum Humidity    
Minimum Humidity    
Precipitation
Precipitation - - ()
Wind
Wind Speed   
Max Wind Speed   
Max Gust Speed   
Visibility   
Events   
Averages and records for this station are not official NWS values.
Key: T is trace of precipitation, MM is missing value
Source: NWS Daily Summary
Seasonal Weather Averages
Time(EST)TemperatureDew PointHumidity Sea Level Pressure Visibility Wind DirectionWind SpeedGust SpeedPrecipitationEventsConditions
12:18 AM 69.8 °F 68.0 °F 94% 29.94 in 2.5 miles South 6.9 mph - N/A   Overcast
12:35 AM 69.8 °F 68.0 °F 94% 29.95 in 1.8 miles SSW 5.8 mph - N/A   Overcast
12:43 AM 69.8 °F 68.0 °F 94% 29.95 in 2.0 miles SW 5.8 mph - N/A   Overcast
12:50 AM 69.8 °F 68.0 °F 94% 29.95 in 1.5 miles SW 6.9 mph - N/A   Overcast
12:53 AM 69.1 °F 68.0 °F 96% 29.95 in 1.2 miles SSW 5.8 mph - N/A   Overcast
1:09 AM 69.8 °F 68.0 °F 94% 29.94 in 0.8 miles SSW 9.2 mph - N/A   Overcast
1:42 AM 69.8 °F 68.0 °F 94% 29.93 in 1.0 miles SSW 10.4 mph - N/A   Overcast
1:53 AM 69.1 °F 68.0 °F 96% 29.93 in 1.0 miles SSW 10.4 mph - N/A   Overcast
2:53 AM 69.1 °F 68.0 °F 96% 29.91 in 1.2 miles SSW 9.2 mph - N/A   Overcast
3:11 AM 69.8 °F 68.0 °F 94% 29.90 in 2.5 miles South 8.1 mph - N/A   Overcast
3:18 AM 69.8 °F 68.0 °F 94% 29.90 in 3.0 miles South 9.2 mph - N/A   Overcast
3:53 AM 70.0 °F 69.1 °F 97% 29.89 in 5.0 miles South 11.5 mph - N/A   Overcast
4:51 AM 71.6 °F 69.8 °F 94% 29.91 in 7.0 miles SW 6.9 mph - N/A   Overcast
4:53 AM 71.1 °F 69.1 °F 93% 29.91 in 7.0 miles SSW 6.9 mph - N/A   Overcast
5:32 AM 69.8 °F 68.0 °F 94% 29.93 in 6.0 miles SSW 6.9 mph - N/A   Overcast
5:53 AM 70.0 °F 68.0 °F 93% 29.93 in 3.0 miles SSW 6.9 mph - N/A   Overcast
6:53 AM 70.0 °F 68.0 °F 93% 29.95 in 4.0 miles SSW 9.2 mph - N/A   Overcast
7:03 AM 69.8 °F 68.0 °F 94% 29.95 in 1.5 miles SSW 6.9 mph - N/A   Overcast
7:53 AM 69.1 °F 68.0 °F 96% 29.96 in 1.5 miles SSW 10.4 mph - N/A   Overcast
8:00 AM 69.8 °F 68.0 °F 94% 29.97 in 2.5 miles SSW 10.4 mph - N/A   Overcast
8:09 AM 69.8 °F 68.0 °F 94% 29.97 in 1.0 miles SSW 9.2 mph - N/A   Overcast
8:32 AM 69.8 °F 68.0 °F 94% 29.97 in 3.0 miles SSW 10.4 mph - N/A   Overcast
8:53 AM 71.1 °F 69.1 °F 93% 29.97 in 9.0 miles SSW 6.9 mph - N/A   Overcast
9:53 AM 78.1 °F 70.0 °F 76% 29.97 in 10.0 miles SSW 11.5 mph - N/A   Scattered Clouds
10:53 AM 78.1 °F 69.1 °F 74% 29.97 in 10.0 miles SW 11.5 mph 24.2 mph N/A   Clear
11:53 AM 79.0 °F 68.0 °F 69% 29.97 in 10.0 miles SW 10.4 mph - N/A   Overcast
12:53 PM 78.1 °F 68.0 °F 71% 29.96 in 10.0 miles SW 10.4 mph - N/A   Clear
1:53 PM 77.0 °F 68.0 °F 74% 29.94 in 10.0 miles SW 6.9 mph - N/A   Partly Cloudy
2:22 PM 77.0 °F 68.0 °F 74% 29.94 in 10.0 miles SW 8.1 mph - N/A   Mostly Cloudy
2:53 PM 75.9 °F 68.0 °F 76% 29.94 in 10.0 miles SW 6.9 mph - N/A   Mostly Cloudy
3:26 PM 75.2 °F 68.0 °F 78% 29.93 in 10.0 miles West 5.8 mph - 0.00 in Rain Light Rain
3:53 PM 75.0 °F 69.1 °F 82% 29.93 in 10.0 miles SSW 8.1 mph - 0.00 in   Scattered Clouds
4:53 PM 73.9 °F 69.1 °F 85% 29.92 in 10.0 miles WSW 4.6 mph - N/A   Clear
5:53 PM 73.0 °F 68.0 °F 84% 29.93 in 10.0 miles West 4.6 mph - N/A   Clear
6:53 PM 72.0 °F 68.0 °F 87% 29.94 in 9.0 miles Calm Calm - N/A   Partly Cloudy
7:53 PM 69.1 °F 66.9 °F 93% 29.94 in 7.0 miles Calm Calm - N/A   Clear
8:53 PM 70.0 °F 66.9 °F 90% 29.95 in 5.0 miles ENE 3.5 mph - N/A   Clear
9:53 PM 68.0 °F 66.9 °F 96% 29.94 in 4.0 miles ESE 3.5 mph - N/A   Clear
10:53 PM 68.0 °F 66.9 °F 96% 29.92 in 3.0 miles ESE 3.5 mph - N/A   Clear
11:06 PM 68.0 °F 66.2 °F 94% 29.93 in 2.5 miles Calm Calm - N/A   Clear
11:16 PM 69.8 °F 66.2 °F 88% 29.94 in 1.2 miles Calm Calm - N/A   Clear
11:48 PM 66.2 °F 66.2 °F 100% 29.92 in 0.8 miles ESE 3.5 mph - N/A   Mist
11:53 PM 66.9 °F 66.0 °F 97% 29.92 in 0.5 miles SE 3.5 mph - N/A Fog Fog
ADVERTISEMENT
Enter city or zip code to search weather conditions:


  • 490 First Avenue South
  • St. Petersburg, FL 33701
  • 727-893-8111